Fort Drum, NY

7:06 PM EDT on March 27, 2017 (GMT -0400)
Wheeler-Sack Army Air Field

Weather History for KGTB - August, 2013

Change the Weather History Date:

Friday, August 23, 2013

  Actual Average Record
Temperature  
Mean Temperature 62 °F -  
Max Temperature 71 °F 74 °F 84 °F (2008)
Min Temperature 53 °F 55 °F 50 °F (2005)
Degree Days  
Heating Degree Days 4    
Growing Degree Days 12 (Base 50)    
Moisture  
Dew Point 57 °F    
Average Humidity 89    
Maximum Humidity 100    
Minimum Humidity 60    
Precipitation  
Precipitation 0.01 in - - ()
Sea Level Pressure  
Sea Level Pressure 30.10 in    
Wind  
Wind Speed 5 mph (NNE)    
Max Wind Speed 12 mph    
Max Gust Speed -    
Visibility 10 miles    
Events      
Averages and records for this station are not official NWS values.
T = Trace of Precipitation, MM = Missing Value Source: NWS Daily Summary

Daily Weather History Graph

Daily Weather History Graph

Search for Another Location

Airport or City:

Trip Planner

Search our weather history database for the weather conditions in past years. The results will help you decide how hot, cold, wet, or windy it might be!

Date:

Astronomy

Aug. 23, 2013 Rise Set
Actual Time 6:16 AM EDT 7:53 PM EDT
Civil Twilight 5:45 AM EDT 8:24 PM EDT
Nautical Twilight 5:08 AM EDT 9:01 PM EDT
Astronomical Twilight 4:28 AM EDT 9:40 PM EDT
Moon 9:02 PM EDT (8/23) 9:17 AM EDT (8/23)
Length of Visible Light 14h 38m
Length of Day
13h 37m
Waning Gibbous, 91% of the Moon is Illuminated
Aug 23
Waning Gibbous
Aug 28
Last Quarter
Sep 5
New
Sep 12
First Quarter
Sep 19
Full

Hourly Weather History & Observations

Time (EDT) Temp. Dew Point Humidity Pressure Visibility Wind Dir Wind Speed Gust Speed Precip Events Conditions
12:13 AM 64.4 °F 64.4 °F 100% 29.97 in 10.0 mi WNW 3.5 mph - N/A   Clear
12:58 AM 63.0 °F 63.0 °F 100% 29.99 in 10.0 mi Variable 3.5 mph - N/A   Clear
1:53 AM 57.2 °F 57.2 °F 100% 30.00 in 8.0 mi WNW 2.3 mph - N/A   Clear
1:58 AM 57.6 °F 57.4 °F 99% 30.00 in 7.0 mi West 2.3 mph - N/A   Clear
2:23 AM 57.2 °F 57.2 °F 100% 30.00 in 10.0 mi NW 3.5 mph - N/A   Clear
2:58 AM 57.2 °F 57.2 °F 100% 30.01 in 10.0 mi NW 4.6 mph - N/A   Clear
3:58 AM 57.2 °F 57.2 °F 100% 30.01 in 10.0 mi NNW 3.5 mph - 0.01 in   Clear
4:58 AM 54.9 °F 54.9 °F 100% 30.02 in 10.0 mi North 3.5 mph - N/A   Clear
5:58 AM 53.6 °F 53.6 °F 100% 30.03 in 10.0 mi North 6.9 mph - N/A   Clear
6:58 AM 54.1 °F 54.1 °F 100% 30.05 in 10.0 mi North 4.6 mph - N/A   Clear
7:58 AM 56.3 °F 56.3 °F 100% 30.07 in 10.0 mi North 5.8 mph - N/A   Clear
8:43 AM 57.2 °F 57.2 °F 100% 30.08 in 10.0 mi Variable 4.6 mph - N/A   Mostly Cloudy
8:58 AM 58.1 °F 57.9 °F 99% 30.09 in 10.0 mi NNE 4.6 mph - N/A   Overcast
9:03 AM 59.0 °F 57.2 °F 94% 30.09 in 10.0 mi NE 5.8 mph - N/A   Overcast
9:08 AM 59.0 °F 59.0 °F 100% 30.09 in 10.0 mi NE 4.6 mph - N/A   Overcast
9:18 AM 59.0 °F 59.0 °F 100% 30.09 in 10.0 mi NE 5.8 mph - N/A   Overcast
9:28 AM 59.0 °F 57.2 °F 94% 30.10 in 10.0 mi NE 11.5 mph - N/A   Overcast
9:58 AM 59.0 °F 57.2 °F 94% 30.11 in 10.0 mi NE 9.2 mph - N/A   Overcast
10:58 AM 60.1 °F 56.3 °F 87% 30.12 in 10.0 mi NE 8.1 mph - N/A   Overcast
11:13 AM 60.8 °F 55.4 °F 82% 30.13 in 10.0 mi ENE 8.1 mph - N/A   Overcast
11:58 AM 63.3 °F 56.8 °F 79% 30.13 in 10.0 mi ENE 6.9 mph - N/A   Overcast
12:58 PM 64.4 °F 55.4 °F 73% 30.13 in 10.0 mi Variable 4.6 mph - N/A   Overcast
1:03 PM 64.4 °F 57.2 °F 77% 30.13 in 10.0 mi North 5.8 mph - N/A   Mostly Cloudy
1:13 PM 64.4 °F 55.4 °F 73% 30.13 in 10.0 mi Variable 4.6 mph - N/A   Mostly Cloudy
1:58 PM 67.3 °F 56.1 °F 67% 30.13 in 10.0 mi Variable 4.6 mph - N/A   Mostly Cloudy
2:58 PM 68.2 °F 55.6 °F 64% 30.13 in 10.0 mi East 4.6 mph - N/A   Scattered Clouds
3:58 PM 70.9 °F 56.3 °F 60% 30.13 in 10.0 mi NNE 8.1 mph - N/A   Scattered Clouds
4:58 PM 68.4 °F 56.5 °F 66% 30.13 in 10.0 mi NNE 5.8 mph - N/A   Clear
5:58 PM 67.6 °F 56.8 °F 68% 30.14 in 10.0 mi North 4.6 mph - N/A   Clear
6:58 PM 68.2 °F 57.0 °F 67% 30.14 in 10.0 mi North 4.6 mph - N/A   Clear
7:58 PM 63.0 °F 55.8 °F 77% 30.15 in 10.0 mi North 4.6 mph - N/A   Clear
8:58 PM 60.8 °F 55.2 °F 82% 30.19 in 10.0 mi NNE 3.5 mph - N/A   Scattered Clouds
9:58 PM 57.0 °F 54.7 °F 92% 30.19 in 10.0 mi NE 2.3 mph - N/A   Clear
10:28 PM 55.4 °F 53.6 °F 94% 30.20 in 3.0 mi NE 2.3 mph - N/A   Scattered Clouds
10:58 PM 54.5 °F 54.5 °F 100% 30.21 in 10.0 mi NE 3.5 mph - N/A   Partly Cloudy
11:58 PM 54.0 °F 53.8 °F 99% 30.22 in 10.0 mi East 2.3 mph - N/A   Clear